This is the latest recevied weather packets stored in our database for station/object p43g-13. If no packets are shown the sender has not sent any weather packets the latest 10 day(s).
| Time | Temp. | Humidity | Pressure | Rain* | Wind** | Luminosity | Snow |
|---|---|---|---|---|---|---|---|
| 1787656413 | 28.89° C | 83% | 1012.8 hPa | 0 mm | - | 58 W/m² | - |
| 1787656114 | 28.33° C | 83% | 1012.6 hPa | 0 mm | - | 42 W/m² | - |
| 1787655814 | 28.33° C | 83% | 1012.6 hPa | 0 mm | - | 43 W/m² | - |
| 1787655514 | 28.33° C | 83% | 1012.4 hPa | 0 mm | - | 29 W/m² | - |
| 1787655214 | 28.33° C | 83% | 1012.6 hPa | 0 mm | - | 22 W/m² | - |
| 1787654914 | 28.33° C | 84% | 1012.6 hPa | 0 mm | - | 17 W/m² | - |
| 1787654614 | 28.33° C | 84% | 1012.6 hPa | 0 mm | - | 15 W/m² | - |
| 1787654314 | 28.33° C | 84% | 1012.3 hPa | 0 mm | - | 9 W/m² | - |
| 1787654014 | 28.33° C | 84% | 1012.3 hPa | 0 mm | - | 6 W/m² | - |
| 1787653714 | 28.33° C | 85% | 1012.2 hPa | 0 mm | - | 3 W/m² | - |
| 1787653414 | 28.33° C | 85% | 1012.2 hPa | 0 mm | - | 0 W/m² | - |
| 1787653114 | 28.33° C | 84% | 1012.1 hPa | 0 mm | - | 0 W/m² | - |
| 1787652814 | 28.33° C | 84% | 1012.2 hPa | 0 mm | - | 0 W/m² | - |
| 1787652514 | 28.33° C | 84% | 1012.1 hPa | 0 mm | - | 0 W/m² | - |
| 1787652214 | 28.33° C | 85% | 1012 hPa | 0 mm | - | 0 W/m² | - |
| 1787651913 | 28.33° C | 85% | 1011.7 hPa | 0 mm | - | 0 W/m² | - |
| 1787651613 | 28.33° C | 85% | 1011.9 hPa | 0 mm | - | 0 W/m² | - |
| 1787651313 | 28.33° C | 85% | 1011.8 hPa | 0 mm | - | 0 W/m² | - |
| 1787651013 | 28.33° C | 85% | 1011.8 hPa | 0 mm | - | 0 W/m² | - |
| 1787650714 | 28.33° C | 86% | 1011.9 hPa | 0 mm | - | 0 W/m² | - |
| 1787650414 | 28.33° C | 86% | 1011.8 hPa | 0 mm | - | 0 W/m² | - |
| 1787650113 | 28.33° C | 86% | 1011.6 hPa | 0 mm | - | 0 W/m² | - |
| 1787649813 | 28.33° C | 85% | 1011.6 hPa | 0 mm | - | 0 W/m² | - |
| 1787649513 | 28.33° C | 85% | 1011.7 hPa | 0 mm | - | 0 W/m² | - |
| 1787649213 | 28.33° C | 85% | 1011.7 hPa | 0 mm | - | 0 W/m² | - |
* Rain latest hour (hover to see other rain measurements)
** Current wind speed in m/s (hover to see current wind gust speed)